Location: Bidwell Hollow
(37.7387°N, 90.1707°W)
Time: 23:43:32
(UTC+00:00)

SR - All Passes

Search period start: 11 May 2026 00:00
Search period end: 21 May 2026 00:00
Orbit: 568 x 852 km, 66.7° (Epoch: 11 May)

Date Brightness Start Highest point End Pass type
(mag) Time Alt. Az. Time Alt. Az. Time Alt. Az.
11 May - 00:28:57 10° NW 00:33:30 25° WSW 00:38:02 10° SSW daylight
11 May - 13:11:48 10° S 13:16:05 38° ESE 13:20:43 10° NE daylight
11 May - 14:53:59 10° WSW 14:57:54 24° NW 15:02:04 10° N daylight
11 May - 21:52:01 10° N 21:56:38 24° NE 22:01:15 10° ESE daylight
11 May - 23:33:04 10° NW 23:38:40 55° WSW 23:44:13 10° S daylight
12 May - 12:18:42 10° SE 12:21:24 15° ESE 12:24:14 10° ENE daylight
12 May - 13:57:52 10° SW 14:02:27 53° WNW 14:07:28 10° NNE daylight
12 May - 20:58:20 10° NNE 21:00:52 13° NE 21:03:24 10° ENE daylight
12 May - 22:37:49 10° NNW 22:43:35 71° ENE 22:49:18 10° SE daylight
13 May - 00:21:17 10° WNW 00:24:40 16° WSW 00:28:02 10° SW daylight
13 May - 13:02:45 10° SSW 13:07:19 63° ESE 13:12:22 10° NE daylight
13 May - 14:46:20 10° W 14:49:33 17° NW 14:52:57 10° N daylight
13 May - 21:43:02 10° N 21:48:15 34° NE 21:53:26 10° ESE daylight
13 May - 23:24:44 10° NW 23:29:57 36° WSW 23:35:06 10° S daylight
14 May - 12:08:44 10° SSE 12:12:31 25° ESE 12:16:33 10° NE daylight
14 May - 13:49:35 10° WSW 13:53:57 35° NW 13:58:41 10° NNE daylight
14 May - 20:48:47 10° N 20:52:37 18° NE 20:56:28 10° E daylight
14 May - 22:29:13 10° NNW 22:34:59 80° WSW 22:40:42 10° SSE daylight
15 May - 12:53:58 10° SSW 12:58:39 82° WNW 13:03:49 10° NNE daylight
15 May - 14:39:16 10° WNW 14:41:17 12° NW 14:43:22 10° NNW daylight
15 May - 21:34:12 10° NNW 21:39:46 49° ENE 21:45:19 10° SE daylight
15 May - 23:16:39 10° NW 23:21:09 24° WSW 23:25:38 10° SSW daylight
16 May - 11:59:21 10° S 12:03:41 40° ESE 12:08:25 10° NE daylight
16 May - 13:41:36 10° WSW 13:45:32 24° NW 13:49:45 10° N daylight
16 May - 20:39:38 10° N 20:44:18 25° NE 20:48:58 10° ESE daylight
16 May - 22:20:43 10° NW 22:26:19 53° WSW 22:31:51 10° S daylight
17 May - 11:06:09 10° SE 11:09:00 16° ESE 11:12:00 10° ENE daylight
17 May - 12:45:27 10° SW 12:50:04 52° WNW 12:55:09 10° NNE daylight
17 May - 19:45:53 10° NNE 19:48:32 13° NE 19:51:11 10° ENE daylight
17 May - 21:25:28 10° NNW 21:31:14 72° ENE 21:36:57 10° SE daylight
17 May - 23:09:01 10° WNW 23:12:18 16° WSW 23:15:35 10° SW daylight
18 May - 11:50:18 10° SSW 11:54:56 65° ESE 12:00:02 10° NE daylight
18 May - 13:33:57 10° W 13:37:12 17° NW 13:40:36 10° N daylight
18 May - 20:30:40 10° NNW 20:35:54 35° NE 20:41:07 10° ESE daylight
18 May - 22:12:24 10° NW 22:17:36 35° WSW 22:22:42 10° S daylight
19 May - 10:56:15 10° SSE 11:00:07 26° ESE 11:04:15 10° NE daylight
19 May - 12:37:11 10° WSW 12:41:35 35° NW 12:46:20 10° NNE daylight
19 May - 19:36:23 10° N 19:40:17 18° NE 19:44:11 10° E daylight
19 May - 21:16:51 10° NNW 21:22:38 78° WSW 21:28:20 10° SSE daylight
20 May - 11:41:32 10° SSW 11:46:16 80° WNW 11:51:29 10° NNE daylight
20 May - 13:26:54 10° WNW 13:28:55 12° NW 13:31:01 10° NNW daylight
20 May - 20:21:49 10° NNW 20:27:26 50° ENE 20:32:58 10° SE daylight
20 May - 22:04:20 10° NW 22:08:47 24° WSW 22:13:12 10° SSW daylight
